IRIDIUM 3 [P]

Last updated on Feb. 9, 2018, 12:19 a.m. UTC

1 25431U 98048A   18039.68901606  .15407232 -13618-5  14806-3 0  9992
2 25431  86.3557 154.9265 0051746 279.7408  80.8369 16.45548534 19776

Satellite is not in orbit.